一网星座-0173星 (ONEWEB-0173 )

导读 | 星芒AI

ONEWEB-0173 是 OneWeb 卫星通信公司发射的低轨通信卫星之一,属于其全球宽带互联网星座计划。该卫星运行在约 1200 公里的近地轨道,旨在为全球偏远地区提供高速互联网服务。OneWeb 星座由数百颗卫星组成,采用 Ka 和 Ku 频段进行通信,支持航空、海运及陆地用户的连接需求。ONEWEB-0173 的成功部署有助于增强 OneWeb 网络的覆盖能力与稳定性,推动其在全球卫星互联网市场的竞争力。

基本信息
目录编号:
48069
目录名称:
ONEWEB-0173
国际标识:
2021-025AD
轨道中心:
EARTH
卫星名称:
一网星座-0173星
卫星全名:
一网星座-0173星 (ONEWEB-0173 )
卫星状态:
在轨 (已飞行1726 天)
发射日期:
2021-03-25 UTC
国别 :
英国 (GB)
星等 :
--
轨道信息
数据来源 国际轨道数据 AOE轨道数据
星历时间 2025-12-15T06:27:47+0800
20小时前
查看轨道信息
2025-12-15T07:00:00+0800
20小时前
查看轨道信息
半长轴 7587.896km 7587.906km
偏心率 0.0001438 0.000137
轨道倾角 87.899° 87.900°
近地点辐角 80.216° 80.143°
升交点赤经 356.838° 356.834°
平近点角 279.913° 25.682°
近地点 1208.669km 1208.731km
远地点 1210.853km 1210.811km
周期 109.633分钟 109.633分钟
每日圈数 13.134717 13.134693
详细信息
平衡模式:
三轴稳定
覆盖范围:
全球
运营商:
一网卫星公司
运营商所在国:
英国
制造商(研发单位):
一网卫星公司
制造商所在国:
英国
使用方式:
暂无
卫星简介
OneWeb卫星网络由648颗重约125公斤的微型卫星组成,运行在1200公里的轨道上。 每颗卫星都能够提供至少每秒8千兆位的吞吐量,以使用其高吞吐量的Ku频段有效载荷为家庭和移动平台提供互联网接入。该卫星仍在工作。
2D轨道图
3D轨道图
轨道高度分析图
轨道倾角分析图
轨道综合分析图
查看轨道综合分析图